Regional Weather Roundup
Issued by NWS

Home | Current Version | Previous Version | Graphics & Text | Print | Product List | Glossary On
Versions: 1 2 3 4 5 6 7 8 9 10 11 12 13 14 15 16 17 18 19 20 21 22 23 24 25 26 27 28 29 30 31 32 33 34 35 36 37 38 39 40 41 42 43 44 45 46 47 48 49 50
000
ASUS45 KCYS 220810
RWRWY

WYOMING REGIONAL WEATHER ROUNDUP
NATIONAL WEATHER SERVICE CHEYENNE WY
100 AM MST SUN JAN 22 2017

NOTE:  "FAIR" INDICATES FEW OR NO CLOUDS BELOW 12,000 FEET
WITH NO SIGNIFICANT WEATHER AND/OR OBSTRUCTIONS TO VISIBILITY.

WYZ001-220900-
YELLOWSTONE NATIONAL PARK

CITY           SKY/WX    TMP DP  RH WIND       PRES   REMARKS
LK YELLOWSTONE   N/A     15  13  91 CALM      29.78R
W YELLOWSTONE  NOT AVBL

$$
WYZ002>013-054>058-071-098>099-220900-
NORTHERN WYOMING

CITY           SKY/WX    TMP DP  RH WIND       PRES   REMARKS
JACKSON        CLOUDY    23  19  86 SW6       29.82R WCI  16
CODY           FAIR      23  15  71 N3        29.74R
GREYBULL       CLOUDY    15  11  83 SE5       29.78R WCI   8
WORLAND        FAIR      13  12  96 S5        29.76S WCI   5
SHERIDAN       CLOUDY    26  19  74 VRB5      29.71R WCI  20
BUFFALO        CLOUDY    29  17  61 NW5       29.70R WCI  24
GILLETTE       FAIR      23  20  88 CALM      29.70R
HULETT         FAIR      23  21  93 S9        29.70R WCI  13
NEWCASTLE      FAIR      21  21 100 N8        29.71R WCI  12

$$
WYZ014>020-022>026-101>103-220900-
CENTRAL WYOMING

CITY           SKY/WX    TMP DP  RH WIND       PRES   REMARKS
BIG PINEY      FAIR       5   2  87 E3        29.84R
PINEDALE       FAIR       5   3  92 W5        29.84R WCI  -4
DUBOIS         NOT AVBL
LANDER         FAIR      20  14  77 CALM      29.75R
RIVERTON       FAIR     N/A N/A N/A NE3       29.76R
CASPER         FAIR      24  17  74 SW13      29.74R WCI  12
DOUGLAS        MOCLDY    23  17  78 NW7       29.72R WCI  15

$$
WYZ021-027>030-104>119-220900-
SOUTHERN WYOMING

CITY           SKY/WX    TMP DP  RH WIND       PRES   REMARKS
EVANSTON       CLOUDY    19  15  84 SW12      29.89R WCI   7
ROCK SPRINGS   FAIR      19  15  84 W18       29.85R WCI   4
RAWLINS        MOCLDY    21  15  78 W18G25    29.78R WCI   6
LARAMIE        CLOUDY    17  14  88 NE5       29.72R WCI  10
CHEYENNE       FAIR      28  18  66 N7        29.70R WCI  21
TORRINGTON     FAIR      26  23  88 NW8       29.70R WCI  18

$$



USA.gov is the U.S. government's official web portal to all federal, state and local government web resources and services.